Location: Clanezzo
(45.7500°N, 9.6000°E)
Time: 09:42:31
(UTC+00:00)

EO-79 - Pass Details

Date: 04 July 2022
Orbit: 588 x 603 km, 98.0° (Epoch: 14 August)

Event Time Altitude Azimuth Distance (km) Brightness Sun altitude
Rises 01:26:51 0° 9° (N) 2,858 ? -16.1°
Reaches altitude 10° 01:29:02 10° 6° (N) 1,953 ? -15.9°
Maximum altitude 01:33:13 60° 287° (WNW) 693 ? -15.5°
Enters shadow 01:35:20 27° 217° (SW) 1,159 ? -15.3°
